Home   Weather   Gera   Past weeks
Flag for Germany

Past Weather in Gera, Thuringia, Germany — Yesterday and Last 2 Weeks

Now
57 °F

Sunny.


Feels Like: 56 °F
Forecast: 50 / 38 °F
Wind: 6 mph from South

Location: Altenburg Nobitz

Current Time: Feb 18, 2019 at 5:56:51 pm

Latest Report: Feb 18, 2019 at 5:20 pm


Visibility: 10 mi

Pressure: 30.04 "Hg

Humidity: 39%

Dew Point: 32 °F

Location of GeraLocation

Past Weather in Gera — Graph

°F

Gera Temperature Yesterday

Maximum temperature yesterday: 63 °F (at 3:20 pm)
Minimum temperature yesterday: 30 °F (at 5:50 am)
Average temperature yesterday: 46 °F

High & Low Weather Summary for the Past Weeks

 TemperatureHumidityPressure
High63 °F (Feb 16, 3:20 pm)100% (Feb 3, 5:20 pm)30.63 "Hg (Feb 3, 5:20 pm)
Low19 °F (Feb 7, 5:20 am)31% (Feb 16, 12:50 pm)29.30 "Hg (Feb 10, 5:50 pm)
Average39 °F73%30.18 "Hg
* Reported Feb 3 4:20 pm — Feb 18 4:50 pm, Gera. Weather by CustomWeather, © 2019

Note: Actual official high and low records may vary slightly from our data, if they occured in-between our weather recording intervals... More about our weather records

Advertising

Gera Weather History for the Previous 24 Hours

Scroll right to see more
 ConditionsComfort  
Time TempWeatherWind HumidityBarometerVisibility
4:50 pm
Mon, Feb 18
59 °FSunny.5 mph36%30.04 "Hg10 mi
4:20 pm61 °FSunny.3 mph36%30.07 "Hg10 mi
3:50 pm61 °FSunny.5 mph36%30.07 "Hg10 mi
3:20 pm61 °FPassing clouds.3 mph36%30.07 "HgN/A
2:20 pm61 °FPassing clouds.3 mph34%30.09 "HgN/A
1:50 pm59 °FPassing clouds.5 mph34%30.09 "HgN/A
1:20 pm59 °FPassing clouds.6 mph39%30.09 "HgN/A
12:50 pm57 °FSunny.7 mph41%30.12 "Hg10 mi
12:20 pm57 °FSunny.7 mph41%30.12 "Hg10 mi
11:50 am55 °FSunny.7 mph44%30.15 "Hg10 mi
11:20 am54 °FPassing clouds.6 mph47%30.15 "HgN/A
10:50 am52 °FPassing clouds.5 mph50%30.15 "HgN/A
10:20 am48 °FSunny.9 mph54%30.15 "Hg10 mi
9:50 am46 °FSunny.9 mph57%30.15 "Hg10 mi
9:20 am43 °FSunny.6 mph66%30.15 "Hg10 mi
8:50 am34 °FSunny.3 mph81%30.15 "Hg10 mi
8:20 am32 °FSunny.3 mph87%30.15 "HgN/A
7:50 am30 °FSunny.No wind86%30.15 "HgN/A
7:20 am30 °FSunny.2 mph86%30.15 "HgN/A
6:50 am30 °FClear.3 mph80%30.15 "HgN/A
6:20 am32 °FClear.2 mph80%30.15 "HgN/A
5:50 am32 °FClear.3 mph80%30.15 "HgN/A
5:20 am30 °FClear.3 mph86%30.15 "HgN/A
4:50 am30 °FClear.2 mph86%30.15 "HgN/A
4:20 am32 °FClear.2 mph80%30.15 "HgN/A
3:50 am32 °FClear.3 mph80%30.15 "HgN/A
3:20 am32 °FClear.2 mph80%30.18 "HgN/A
2:50 am37 °FClear.6 mph70%30.18 "HgN/A
2:20 am36 °FClear.5 mph70%30.18 "HgN/A
1:50 am34 °FClear.3 mph81%30.18 "HgN/A
12:50 am34 °FClear.3 mph81%30.18 "HgN/A
12:20 am36 °FClear.3 mph75%30.18 "HgN/A
11:50 pm
Sun, Feb 17
37 °FClear.3 mph70%30.18 "HgN/A
11:20 pm37 °FClear.5 mph70%30.18 "HgN/A
10:50 pm41 °FClear.6 mph66%30.18 "HgN/A
10:20 pm45 °FClear.7 mph53%30.18 "HgN/A
9:50 pm46 °FClear.6 mph50%30.18 "HgN/A
9:20 pm48 °FClear.8 mph46%30.18 "HgN/A
8:50 pm50 °FClear.8 mph43%30.18 "HgN/A
8:20 pm50 °FClear.6 mph43%30.18 "HgN/A
7:50 pm52 °FClear.9 mph38%30.18 "HgN/A
7:20 pm52 °FClear.8 mph38%30.18 "HgN/A
6:50 pm52 °FPassing clouds.7 mph41%30.18 "HgN/A
6:20 pm54 °FPassing clouds.9 mph41%30.18 "HgN/A
5:50 pm48 °FPassing clouds.5 mph58%30.18 "HgN/A
5:20 pm57 °FSunny.5 mph39%30.18 "HgN/A
Weather by CustomWeather, © 2019

See weather overview